GW1675 Weather Reports


Display with metric or nautical units.
time (UTC)temp
F
wind
direction
speed
MPH
gust
MPH
rain 1hr
in
rain 24hr
in
rain mn
in
humidity
%
barometer
mb
20260507020106 59 98 4.0 13.0 0.00 0.00 0.00 67 1011.1
20260507014606 60 98 6.0 15.0 0.00 0.00 0.00 67 1011.1
20260507013056 60 96 8.0 16.0 0.00 0.00 0.00 67 1011.1
20260507011555 60 99 8.0 18.0 0.00 0.00 0.00 67 1011.2
20260507010046 60 98 7.0 17.0 0.00 0.00 0.00 67 1011.3
20260507004549 61 96 8.0 19.0 0.00 0.00 0.00 67 1011.4
20260507003038 61 94 8.0 17.0 0.00 0.00 0.00 67 1011.6
20260507001558 61 89 8.0 15.0 0.00 0.00 0.00 67 1011.6
20260507000057 61 87 9.0 18.0 0.00 0.00 0.00 67 1011.6
20260506234604 61 86 6.0 13.0 0.00 0.00 0.00 67 1011.7
20260506233049 61 86 8.0 19.0 0.00 0.00 0.00 67 1011.7
20260506231543 62 87 11.0 22.0 0.00 0.00 0.00 67 1011.9
20260506230100 62 75 9.0 19.0 0.00 0.00 0.00 66 1011.9
20260506224550 62 68 11.0 22.0 0.00 0.00 0.00 66 1012.0
20260506223044 62 94 9.0 17.0 0.00 0.00 0.00 66 1011.9
20260506221601 63 93 10.0 17.0 0.00 0.00 0.00 66 1011.9
20260506220047 63 91 9.0 16.0 0.00 0.00 0.00 66 1011.8
20260506214543 63 92 9.0 15.0 0.00 0.00 0.00 66 1012.0
20260506213054 63 92 9.0 17.0 0.00 0.00 0.00 66 1011.8
20260506211553 64 92 8.0 15.0 0.00 0.00 0.00 66 1011.7
20260506210047 64 92 7.0 16.0 0.00 0.00 0.00 66 1011.4
20260506204546 64 96 7.0 12.0 0.00 0.00 0.00 66 1011.4
20260506203044 65 98 7.0 13.0 0.00 0.00 0.00 66 1011.2
20260506201552 65 98 9.0 17.0 0.00 0.00 0.00 66 1011.3
20260506200047 66 117 7.0 13.0 0.00 0.00 0.00 66 1011.1
20260506194546 67 124 8.0 14.0 0.00 0.00 0.00 66 1010.9
20260506193051 68 162 7.0 14.0 0.00 0.00 0.00 66 1010.8
20260506191545 68 172 6.0 10.0 0.00 0.00 0.00 66 1010.6
20260506190043 69 173 3.0 6.0 0.00 0.00 0.00 66 1010.4
20260506184545 69 173 1.0 2.0 0.00 0.00 0.00 66 1010.3
20260506183051 68 173 3.0 5.0 0.00 0.00 0.00 65 1010.2
20260506181607 69 173 4.0 7.0 0.00 0.00 0.00 64 1010.3
20260506180048 70 173 4.0 12.0 0.00 0.00 0.00 64 1010.3
20260506174545 70 173 9.0 15.0 0.00 0.00 0.00 64 1010.5
20260506173112 71 172 8.0 15.0 0.00 0.00 0.00 65 1010.7
20260506171549 71 172 8.0 14.0 0.00 0.00 0.00 65 1010.7
20260506170052 71 172 10.0 14.0 0.00 0.00 0.00 66 1010.8
20260506164545 71 172 9.0 14.0 0.00 0.00 0.00 66 1010.8
20260506163053 71 172 8.0 15.0 0.00 0.00 0.00 67 1011.0
20260506161547 71 171 6.0 13.0 0.00 0.00 0.00 67 1011.2
20260506160046 70 172 8.0 17.0 0.00 0.00 0.00 67 1011.3
20260506154606 69 174 7.0 16.0 0.00 0.00 0.00 66 1011.5
20260506153046 68 178 9.0 17.0 0.00 0.00 0.00 66 1011.7
20260506151546 67 181 13.0 21.0 0.00 0.00 0.00 66 1012.0
20260506150047 68 180 11.0 20.0 0.00 0.00 0.00 65 1012.2
20260506144551 68 181 10.0 18.0 0.00 0.00 0.00 65 1012.5
20260506143044 67 181 11.0 19.0 0.00 0.00 0.00 65 1012.5
20260506141549 68 169 9.0 18.0 0.00 0.00 0.00 65 1013.0
20260506140048 69 161 11.0 17.0 0.00 0.00 0.00 65 1013.2
20260506134544 69 160 7.0 17.0 0.00 0.00 0.00 65 1013.3
20260506133056 70 153 5.0 14.0 0.00 0.00 0.00 66 1013.4
20260506131545 69 149 7.0 14.0 0.00 0.00 0.00 66 1013.6
20260506130046 69 146 8.0 13.0 0.00 0.00 0.00 66 1013.6
20260506124545 69 141 5.0 13.0 0.00 0.00 0.00 67 1014.0
20260506123047 69 131 6.0 12.0 0.00 0.00 0.00 67 1014.0
20260506121545 68 129 8.0 14.0 0.00 0.00 0.00 67 1014.3
20260506120044 68 127 7.0 14.0 0.00 0.00 0.00 67 1014.4
20260506114548 68 106 6.0 13.0 0.00 0.00 0.00 67 1014.5
20260506113042 67 106 9.0 13.0 0.00 0.00 0.00 67 1014.6
20260506111549 67 105 7.0 13.0 0.00 0.00 0.00 68 1014.8
20260506110047 67 105 8.0 13.0 0.00 0.00 0.00 68 1014.9
20260506104608 67 105 5.0 12.0 0.00 0.00 0.00 68 1014.9
20260506103044 66 105 7.0 11.0 0.00 0.00 0.00 68 1015.0
20260506101548 66 105 5.0 10.0 0.00 0.00 0.00 68 1014.9
20260506100046 68 105 1.0 8.0 0.00 0.00 0.00 69 1014.9
20260506094540 66 105 3.0 11.0 0.00 0.00 0.00 69 1014.9
20260506093045 66 105 4.0 7.0 0.00 0.00 0.00 70 1014.7
20260506091544 65 105 3.0 12.0 0.00 0.00 0.00 70 1014.8
20260506090047 64 105 2.0 9.0 0.00 0.00 0.00 70 1014.9
20260506084544 64 105 2.0 9.0 0.00 0.00 0.00 70 1014.9
20260506083047 63 105 2.0 9.0 0.00 0.00 0.00 70 1014.9
20260506081557 61 105 4.0 8.0 0.00 0.00 0.00 70 1014.9
20260506073048 59 105 4.0 12.0 0.00 0.00 0.00 70 1015.1
20260506071545 58 105 6.0 13.0 0.00 0.00 0.00 70 1015.0
20260506061552 56 105 7.0 11.0 0.00 0.00 0.00 70 1014.9
20260506044554 55 105 6.0 11.0 0.00 0.00 0.00 68 1014.7
20260506043053 56 105 7.0 11.0 0.00 0.00 0.00 68 1014.7
20260506041546 56 105 7.0 12.0 0.00 0.00 0.00 68 1015.0
20260506040053 56 105 6.0 12.0 0.00 0.00 0.00 68 1014.9
20260506034552 56 105 8.0 13.0 0.00 0.00 0.00 68 1014.9
20260506033045 57 105 7.0 13.0 0.00 0.00 0.00 68 1015.0
20260506031547 57 105 7.0 13.0 0.00 0.00 0.00 68 1015.0
20260506030052 57 105 7.0 13.0 0.00 0.00 0.00 68 1015.2
20260506024547 57 105 6.0 13.0 0.00 0.00 0.00 68 1015.2
20260506023050 58 105 5.0 9.0 0.00 0.00 0.00 68 1015.2
20260506021556 58 105 8.0 13.0 0.00 0.00 0.00 67 1015.4